Probability
29 35 48 48 39 39 29 29 26 29 26 23 26 26 26 19 19 26 48 68 74 74 74 61 65 68 61 55 61 58 48 42 48 58 45 42 35 32 23 26 26 26 16
39 39 48 58 45 42 39 45 26 29 29 32 29 29 29 23 26 26 35 52 65 74 74 68 74 65 61 58 68 68 61 48 52 55 55 55 55 52 39 35 39 32 29
48 42 42 52 48 45 45 48 29 32 35 32 32 26 26 26 29 35 29 48 55 58 68 74 65 65 65 65 68 71 68 68 55 55 58 61 55 48 42 35 42 35 32
42 55 42 35 35 45 45 45 39 29 32 35 35 26 26 32 29 39 32 39 45 42 61 61 65 61 61 65 61 68 71 71 58 55 52 58 55 52 42 39 32 39 29
32 52 55 48 45 35 45 35 45 45 42 42 39 32 26 32 35 29 26 32 45 45 42 61 58 55 61 65 65 68 68 65 58 58 52 52 48 48 45 42 39 42 35
48 55 52 45 42 48 45 45 42 55 48 48 29 23 26 26 29 29 29 29 45 42 39 45 55 55 48 55 61 58 58 58 58 58 55 52 52 45 45 42 39 29 26
58 65 52 55 55 52 52 39 45 42 39 42 39 39 35 19 19 42 32 42 35 35 35 48 52 52 55 52 52 61 58 58 55 58 58 52 52 55 52 42 29 23 23
58 35 68 48 48 65 58 52 55 55 42 39 39 39 29 23 39 19 29 35 32 29 29 35 45 52 45 45 35 52 55 58 55 61 61 58 48 52 52 45 39 29 19
48 45 55 61 65 48 48 61 65 61 52 39 48 42 29 32 35 29 32 35 39 45 32 35 42 45 42 45 48 35 42 58 55 55 58 55 58 55 48 42 35 29 26
48 48 58 58 65 55 61 52 42 52 55 42 42 48 45 42 39 45 39 35 42 42 35 26 29 35 42 48 52 35 39 35 45 45 48 52 58 48 42 42 39 35 32
65 58 58 65 61 61 65 58 55 55 58 52 42 52 45 55 42 45 35 48 48 32 39 42 32 32 29 39 55 39 16 10 13 23 32 39 45 45 42 39 39 32 29
65 61 65 65 65 61 65 58 68 58 58 52 58 48 48 35 45 42 39 52 48 35 32 35 32 32 32 35 39 23 16 3 0 0 10 10 26 32 32 26 35 39 32
61 68 61 68 65 61 61 61 65 61 55 55 55 55 52 52 48 58 55 48 39 35 42 29 29 39 32 32 55 23 19 10 0 0 0 0 6 10 16 19 19 23 32
61 65 65 65 65 65 61 74 61 52 61 61 52 52 52 48 52 52 52 52 45 45 45 39 39 35 29 35 23 10 32 6 3 0 0 0 0 3 3 6 6 13 13
61 58 58 58 61 68 68 71 65 55 61 58 52 52 52 45 45 58 48 55 48 48 39 45 45 35 26 29 23 39 45 26 3 3 0 0 0 0 0 0 0 0 0
58 61 61 58 55 65 65 68 61 68 71 61 65 58 61 48 52 45 55 45 45 45 35 35 52 29 32 23 19 32 35 19 6 3 0 0 0 0 0 0 0 0 0
55 48 52 58 58 58 65 68 52 55 52 52 45 45 52 55 55 42 42 45 45 48 42 45 32 32 42 39 29 35 32 29 29 3 3 0 0 0 0 0 0 0 0
52 52 52 52 55 58 61 58 55 52 52 52 45 48 48 48 52 48 45 42 42 48 39 42 42 29 32 35 32 45 29 23 19 6 3 3 0 0 0 0 0 0 0
55 52 52 52 52 55 58 55 55 55 55 48 52 55 52 48 55 52 52 45 39 39 39 35 39 45 35 29 35 29 23 32 19 13 6 3 0 0 0 0 0 0 0
52 48 48 48 45 48 48 52 52 55 52 52 52 45 48 48 48 48 48 52 45 42 42 39 35 39 42 35 35 23 16 23 23 16 10 6 3 3 0 0 0 0 0
48 48 48 45 39 39 35 39 42 39 48 45 45 45 45 45 42 42 35 45 45 42 39 45 32 29 29 35 23 19 19 26 32 19 23 16 19 16 10 3 0 0 0
48 48 48 48 39 29 26 23 29 32 35 39 42 45 45 42 23 16 10 10 23 39 35 32 29 32 32 35 32 26 26 23 19 16 23 13 13 16 19 19 0 0 0
55 52 45 45 42 29 16 16 19 29 29 32 29 35 29 19 26 29 16 3 3 3 6 32 26 32 26 32 32 26 29 26 26 16 23 13 16 16 10 6 0 0 0
48 48 45 42 39 29 13 10 10 26 26 29 32 23 23 23 16 23 19 19 23 23 19 19 26 26 23 23 26 26 26 26 26 26 26 19 13 13 6 6 0 0 0
45 39 39 39 29 26 16 10 3 23 26 26 19 23 19 16 13 10 16 19 23 26 10 6 6 10 3 3 10 13 19 16 10 10 16 13 10 13 16 16 3 0 0
42 35 29 32 32 29 16 6 0 19 26 19 23 16 10 10 10 6 16 16 19 26 19 13 6 3 6 3 0 3 10 16 10 10 13 13 10 10 10 10 13 10 0
Height
5902 5903 5904 5904 5904 5905 5906 5906 5906 5907 5907 5907 5908 5909 5910 5910 5911 5911 5912 5912 5912 5912 5912 5912 5911 5911 5911 5911 5910 5910 5910 5909 5909 5909 5908 5908 5907 5907 5906 5906 5905 5905 5905
5902 5903 5904 5904 5905 5905 5906 5906 5906 5907 5907 5907 5908 5909 5909 5910 5910 5911 5911 5911 5911 5911 5911 5911 5911 5910 5910 5910 5909 5909 5909 5908 5908 5908 5907 5907 5906 5906 5905 5905 5904 5904 5904
5902 5903 5903 5904 5904 5905 5905 5906 5906 5906 5906 5906 5907 5908 5908 5909 5909 5910 5910 5910 5910 5910 5910 5910 5910 5909 5909 5909 5909 5908 5908 5907 5907 5906 5906 5905 5905 5904 5904 5903 5903 5902 5902
5901 5902 5903 5904 5904 5904 5905 5905 5905 5906 5906 5906 5906 5907 5907 5908 5908 5909 5909 5909 5909 5909 5909 5909 5909 5908 5908 5907 5907 5907 5906 5906 5905 5905 5904 5904 5903 5903 5902 5902 5901 5901 5900
5900 5901 5902 5903 5903 5904 5904 5904 5904 5905 5905 5905 5905 5906 5906 5906 5907 5908 5908 5908 5908 5908 5907 5907 5907 5907 5906 5906 5905 5905 5904 5904 5904 5903 5903 5902 5902 5901 5900 5900 5899 5899 5898
5899 5900 5900 5901 5902 5902 5903 5903 5903 5903 5904 5904 5904 5904 5905 5905 5906 5906 5906 5906 5906 5906 5906 5906 5905 5905 5904 5904 5903 5903 5903 5902 5901 5901 5900 5900 5899 5899 5898 5898 5897 5896 5896
5898 5899 5899 5900 5900 5901 5901 5902 5902 5902 5902 5902 5903 5903 5903 5903 5904 5904 5904 5904 5904 5904 5904 5903 5903 5903 5902 5902 5901 5901 5900 5900 5899 5899 5898 5897 5897 5896 5896 5895 5894 5894 5893
5897 5897 5898 5898 5899 5899 5899 5900 5900 5900 5900 5901 5901 5901 5901 5902 5901 5902 5902 5902 5902 5902 5901 5901 5901 5900 5900 5899 5899 5898 5898 5897 5897 5896 5895 5895 5894 5893 5893 5892 5891 5891 5890
5895 5895 5896 5897 5897 5897 5898 5898 5898 5898 5898 5898 5898 5899 5899 5899 5899 5899 5899 5899 5899 5899 5899 5898 5898 5897 5897 5896 5896 5895 5895 5894 5893 5893 5892 5892 5891 5890 5889 5888 5888 5887 5887
5893 5894 5894 5895 5895 5895 5896 5896 5896 5896 5896 5896 5896 5896 5897 5897 5897 5897 5897 5896 5896 5896 5896 5895 5895 5894 5894 5893 5893 5892 5891 5891 5890 5890 5889 5888 5887 5886 5885 5884 5884 5883 5882
5892 5892 5892 5893 5893 5893 5893 5893 5893 5894 5894 5893 5893 5894 5894 5894 5894 5894 5894 5893 5893 5892 5892 5892 5891 5891 5890 5889 5889 5888 5888 5887 5886 5885 5885 5884 5883 5882 5881 5880 5879 5879 5878
5890 5890 5890 5890 5890 5890 5890 5891 5891 5891 5891 5891 5890 5891 5891 5891 5891 5891 5891 5890 5889 5889 5888 5888 5887 5887 5886 5885 5885 5884 5883 5883 5882 5881 5880 5879 5878 5877 5876 5876 5875 5874 5873
5887 5887 5887 5887 5887 5887 5887 5887 5887 5887 5887 5887 5887 5887 5887 5887 5887 5887 5887 5886 5886 5885 5884 5883 5883 5882 5881 5881 5880 5880 5879 5878 5877 5876 5875 5874 5873 5872 5871 5871 5870 5869 5868
5884 5884 5883 5883 5883 5883 5883 5883 5883 5883 5883 5883 5882 5883 5883 5883 5883 5883 5882 5882 5881 5881 5880 5879 5878 5877 5876 5876 5875 5874 5874 5873 5872 5871 5870 5869 5868 5867 5866 5865 5864 5863 5863
5881 5880 5880 5880 5879 5879 5879 5879 5879 5879 5878 5878 5878 5878 5878 5878 5878 5878 5877 5877 5876 5876 5875 5874 5873 5872 5871 5870 5869 5868 5868 5867 5866 5865 5864 5863 5862 5861 5860 5859 5858 5857 5856
5877 5877 5876 5875 5875 5874 5874 5874 5874 5873 5873 5873 5872 5872 5873 5873 5872 5872 5871 5871 5870 5869 5869 5868 5867 5866 5865 5864 5863 5862 5861 5861 5860 5859 5858 5857 5856 5854 5853 5852 5851 5850 5849
5873 5872 5872 5871 5870 5870 5869 5868 5868 5867 5867 5866 5866 5866 5866 5866 5866 5865 5865 5864 5864 5863 5862 5862 5860 5859 5858 5857 5856 5855 5854 5854 5853 5852 5851 5850 5849 5847 5846 5845 5844 5843 5842
5868 5867 5867 5866 5865 5864 5863 5863 5862 5861 5860 5860 5860 5860 5860 5859 5859 5858 5858 5857 5857 5856 5856 5855 5853 5852 5851 5850 5848 5848 5847 5846 5845 5844 5843 5842 5841 5840 5839 5837 5836 5835 5834
5863 5862 5861 5860 5859 5858 5857 5857 5856 5855 5854 5853 5853 5853 5852 5852 5851 5851 5850 5850 5850 5849 5848 5847 5846 5845 5843 5842 5841 5840 5839 5838 5837 5836 5835 5834 5833 5831 5830 5829 5828 5827 5826
5857 5855 5854 5853 5852 5851 5850 5849 5848 5848 5847 5846 5846 5846 5845 5844 5843 5843 5842 5842 5841 5841 5840 5839 5838 5837 5835 5834 5832 5831 5830 5829 5828 5827 5826 5825 5824 5823 5822 5821 5820 5818 5817
5849 5848 5847 5845 5844 5843 5842 5841 5840 5840 5839 5839 5838 5838 5838 5837 5836 5835 5835 5834 5833 5832 5831 5830 5829 5828 5827 5825 5824 5823 5821 5820 5819 5818 5817 5816 5815 5814 5812 5811 5810 5809 5807
5841 5840 5839 5837 5836 5835 5834 5833 5832 5832 5832 5831 5831 5830 5829 5829 5828 5827 5827 5826 5825 5824 5823 5822 5821 5820 5818 5817 5815 5814 5812 5811 5810 5809 5807 5806 5804 5803 5802 5801 5799 5798 5797
5833 5831 5830 5829 5828 5827 5826 5825 5824 5823 5823 5822 5822 5821 5821 5820 5819 5818 5817 5816 5816 5814 5814 5813 5812 5810 5809 5808 5806 5804 5803 5801 5800 5799 5797 5796 5794 5793 5792 5790 5789 5788 5786
5824 5822 5821 5820 5819 5818 5817 5816 5814 5813 5813 5813 5813 5812 5812 5811 5810 5809 5808 5807 5806 5805 5804 5803 5802 5801 5799 5798 5796 5795 5793 5791 5790 5789 5787 5786 5785 5783 5781 5780 5778 5777 5776
5815 5813 5812 5810 5809 5809 5808 5806 5805 5804 5804 5804 5804 5803 5802 5802 5801 5800 5798 5797 5796 5795 5794 5793 5791 5790 5789 5788 5786 5785 5783 5781 5780 5778 5777 5775 5774 5772 5771 5769 5768 5766 5765
5805 5804 5802 5801 5799 5799 5798 5797 5795 5794 5794 5794 5794 5793 5792 5792 5791 5790 5788 5787 5786 5785 5784 5782 5781 5779 5778 5777 5775 5774 5772 5771 5769 5768 5766 5765 5763 5761 5760 5759 5756 5755 5753
Wind_Speed
7 7 7 7 7 8 7 6 6 6 5 6 6 5 4 4 4 4 4 5 5 4 5 5 5 4 3 3 3 3 3 4 4 4 4 4 4 5 5 5 5 6 6
7 7 7 7 7 7 7 7 7 7 6 6 6 6 6 5 5 5 5 5 5 5 5 5 5 4 3 3 4 4 4 5 5 5 5 6 6 6 6 6 7 7 7
7 7 8 8 8 7 7 6 6 6 7 7 8 7 6 6 6 6 5 5 6 6 6 5 5 5 5 4 5 5 6 6 6 6 7 7 7 7 7 7 7 8 9
7 8 8 8 8 8 8 8 7 7 7 7 8 8 8 7 8 7 6 7 6 6 6 6 6 6 6 6 6 7 7 7 7 7 7 8 8 8 8 9 9 9 9
7 8 8 9 9 9 9 9 8 8 8 8 7 7 8 8 8 7 7 7 6 7 7 7 7 8 8 8 8 8 8 9 9 9 9 10 10 10 10 10 10 10 11
8 8 8 9 9 10 9 9 9 9 8 9 9 8 8 9 9 8 8 8 8 8 8 9 8 9 9 9 10 10 10 10 10 10 10 11 11 11 11 11 11 11 11
8 8 9 9 9 10 10 10 10 10 10 10 10 10 10 10 10 10 10 10 10 10 10 10 10 10 10 11 11 12 11 11 11 11 11 12 12 12 12 12 13 13 13
8 9 9 9 10 11 11 11 11 11 11 11 12 12 12 12 11 12 12 12 12 12 12 12 12 12 12 12 12 13 13 13 13 13 13 13 14 14 14 14 14 14 14
9 9 10 10 10 10 10 11 12 11 11 12 12 12 13 13 13 13 13 13 14 15 14 14 14 13 13 13 13 14 15 15 14 14 14 15 15 15 15 15 16 16 16
10 10 10 10 10 11 11 12 11 11 12 12 12 13 13 14 14 14 14 15 15 16 15 15 15 14 15 15 15 15 16 16 16 16 16 17 17 18 17 17 16 17 17
10 10 11 11 11 12 12 12 12 13 13 12 13 14 14 15 15 15 15 15 15 15 15 15 15 15 16 16 17 17 17 17 17 17 17 18 19 19 19 18 18 18 18
11 11 11 12 13 13 13 13 14 14 14 14 15 15 15 15 16 16 16 16 17 17 17 16 17 17 18 18 18 18 18 18 18 19 19 19 19 19 20 20 20 20 20
13 13 13 13 14 14 15 15 14 15 16 17 18 17 17 17 17 17 18 18 18 19 19 19 19 20 20 20 20 20 20 19 19 20 19 20 21 21 21 22 22 22 22
14 14 15 15 15 16 16 16 17 17 18 18 19 19 19 19 20 20 20 20 20 20 21 21 22 22 22 22 22 22 22 21 21 21 22 22 22 22 23 23 23 24 25
15 16 16 17 17 17 18 18 18 19 19 20 20 20 21 21 22 22 22 23 23 22 23 24 24 24 24 24 23 24 23 23 23 23 23 24 24 24 24 24 25 26 26
16 17 17 18 19 19 20 21 21 21 21 21 21 23 23 23 24 25 25 25 25 25 25 26 26 26 26 26 26 26 25 25 25 25 25 26 25 25 25 26 26 27 27
19 19 19 20 20 20 22 23 23 23 22 22 23 24 24 25 26 26 26 27 27 27 27 27 28 28 28 28 28 28 27 26 26 26 27 27 27 27 27 27 28 29 29
21 21 21 22 22 23 24 24 24 23 24 24 24 25 25 26 27 28 29 28 28 28 28 27 27 28 29 30 29 29 29 29 28 28 28 29 29 29 29 29 29 30 30
24 24 25 25 25 26 26 26 26 25 26 27 27 27 27 28 28 29 30 30 29 28 28 28 28 28 28 29 30 31 31 31 31 31 31 31 31 31 31 31 31 31 31
26 26 26 26 27 27 26 27 27 27 27 28 29 28 28 28 28 29 29 29 29 30 30 30 30 30 31 30 30 31 32 32 32 33 33 33 33 33 33 33 33 33 33
27 27 27 28 28 28 28 27 27 27 27 27 28 29 28 28 28 29 29 29 30 31 31 31 31 32 32 32 33 33 33 33 34 34 35 35 35 35 34 34 35 35 34
28 28 28 28 28 28 28 28 28 29 29 29 30 30 30 30 30 31 30 31 31 32 33 33 33 33 33 33 33 34 35 35 35 35 36 36 36 36 37 36 36 36 36
30 30 29 28 28 28 28 28 30 30 30 30 30 31 32 32 31 32 32 33 33 33 35 34 34 35 35 35 35 36 36 37 37 37 37 37 38 38 39 39 38 37 37
31 31 30 30 30 30 30 31 31 31 31 31 32 32 32 32 32 33 34 34 34 35 34 35 35 36 36 37 37 37 38 38 38 38 38 38 39 40 39 39 39 38 38
32 32 32 32 32 31 31 32 32 32 32 32 32 32 33 33 33 33 34 35 35 35 35 36 36 37 37 37 37 37 38 38 38 38 38 39 39 40 40 40 39 39 39
33 33 33 34 33 32 33 33 34 33 33 32 33 34 34 34 34 35 36 35 36 36 36 36 36 37 37 37 37 38 38 38 39 39 39 40 40 40 40 40 40 40 41
Wind_Direction
193 201 200 199 201 203 205 213 217 214 207 215 217 218 215 221 219 232 239 246 249 255 268 274 283 291 296 289 292 285 290 293 288 284 283 289 297 293 289 290 291 284 282
193 200 199 201 204 204 205 213 219 218 219 224 221 222 229 227 228 237 249 253 254 264 275 282 280 273 286 282 286 284 284 290 287 282 283 284 287 286 287 288 291 291 287
202 203 202 207 206 204 215 219 227 229 224 221 225 230 232 230 234 241 251 253 259 261 266 279 289 285 287 284 281 285 284 286 288 283 281 281 283 284 283 283 286 289 288
211 210 212 216 218 222 228 232 235 239 236 230 231 229 229 225 230 236 244 252 261 264 271 280 287 293 296 291 285 284 284 285 288 286 288 287 282 284 283 280 281 284 287
218 222 221 223 225 227 232 239 237 241 245 249 246 239 235 231 234 240 254 260 262 270 276 280 283 288 290 288 280 281 282 281 282 281 283 285 283 283 281 279 279 279 285
224 229 229 228 232 233 238 242 243 247 250 251 250 251 247 243 244 251 258 260 264 269 273 278 283 285 288 286 281 281 283 283 280 277 278 281 282 283 281 280 279 278 280
237 236 235 236 238 240 244 248 250 253 253 252 254 255 254 252 250 255 260 260 264 267 273 279 284 286 285 285 282 281 282 285 282 276 275 277 280 282 281 279 279 279 281
246 241 239 244 245 248 251 253 255 255 257 257 256 255 254 255 253 259 262 264 268 269 274 278 282 282 282 283 283 284 283 283 283 279 277 278 279 280 281 281 280 281 281
249 246 247 252 253 255 255 258 261 257 259 259 258 257 256 253 257 261 264 268 271 271 274 277 279 279 281 285 283 282 282 282 280 281 280 281 281 282 283 283 281 280 281
258 256 256 260 264 259 259 260 259 261 262 262 260 261 260 258 259 264 269 269 271 272 275 278 278 279 281 281 282 283 282 283 280 280 282 282 281 280 280 283 281 281 281
264 261 262 266 264 264 264 261 261 264 266 267 265 263 261 260 261 266 270 272 275 277 278 279 278 280 283 282 281 282 282 283 282 281 282 281 281 282 279 280 281 281 281
273 271 270 269 265 266 267 267 264 264 266 267 265 264 264 264 265 266 269 273 276 278 280 281 281 281 284 284 280 280 281 282 282 283 282 280 281 281 280 280 279 280 280
277 275 274 271 269 267 267 268 267 268 271 266 263 263 265 265 265 267 270 272 274 277 279 281 282 281 283 283 280 281 281 280 282 282 282 282 281 280 280 279 278 280 280
279 277 275 272 273 272 270 270 271 272 273 271 267 265 266 266 267 269 272 274 276 277 278 279 280 281 281 280 279 278 278 278 282 282 281 284 284 281 280 279 278 279 280
280 279 279 274 272 273 271 269 270 271 271 270 269 268 267 267 269 271 274 276 276 276 275 276 279 280 281 279 278 278 277 278 281 282 281 283 285 284 282 280 278 280 280
281 279 279 277 272 271 272 273 271 270 269 268 268 268 268 269 269 269 271 274 275 274 275 276 279 280 280 279 277 278 277 277 278 280 281 282 283 284 284 281 279 279 280
281 280 279 278 277 275 272 273 274 273 272 270 269 270 270 270 269 269 270 273 275 276 277 278 279 278 278 279 279 278 277 277 278 279 280 280 281 283 283 280 279 279 280
282 281 280 278 279 279 278 277 275 274 275 272 272 273 274 274 271 270 271 273 274 276 277 279 279 279 280 279 279 279 278 277 278 279 280 281 281 282 282 281 279 279 280
284 281 279 279 279 279 279 278 275 274 275 273 272 273 275 276 275 274 274 274 276 278 279 278 279 280 281 280 278 278 278 279 279 279 280 279 281 282 282 281 280 279 280
286 284 282 281 281 281 279 278 273 273 272 271 271 274 276 279 277 275 276 275 276 277 278 279 278 278 279 280 280 280 279 278 278 279 280 280 280 281 281 281 281 281 281
285 284 283 283 282 280 279 277 273 272 272 272 272 273 275 277 277 277 277 276 277 278 278 279 280 279 279 279 280 281 280 279 279 278 280 279 280 281 281 281 281 282 281
285 285 284 283 282 280 279 276 274 272 272 272 273 273 274 275 276 276 276 277 278 278 278 278 279 280 281 282 282 282 283 281 281 280 280 280 281 281 280 281 281 280 279
284 284 283 282 279 277 276 276 275 274 272 272 273 273 274 275 276 276 276 276 278 279 278 278 278 279 280 281 282 282 283 283 281 281 281 281 281 282 281 281 281 281 280
282 281 281 280 278 277 276 276 275 273 273 272 273 274 275 276 278 278 277 277 278 279 279 279 279 279 280 280 280 281 282 282 282 281 281 281 281 282 282 282 282 280 279
280 279 280 279 279 278 278 277 274 272 272 273 274 274 274 275 278 278 278 279 279 279 280 281 280 279 279 280 281 281 281 282 282 281 280 281 281 281 281 282 281 280 279
279 279 280 281 279 278 277 276 274 273 273 274 274 275 274 274 276 278 279 280 281 281 280 280 280 280 279 279 280 280 280 281 281 281 281 281 282 281 281 281 280 281 281